Location: Bakhuizen
(52.8696°N, 5.4575°E)
Time: 22:51:29
(UTC+00:00)

Cosmos 1703 Rocket - Pass Details

Date: 11 May 2021
Orbit: 605 x 633 km, 82.5° (Epoch: 24 June)

Event Time Altitude Azimuth Distance (km) Brightness Sun altitude
Exits shadow 23:48:52 35° 223° (SW) 996 4.2 -18.9°
Maximum altitude 23:50:27 57° 285° (WNW) 732 3.9 -18.9°
Drops below altitude 10° 23:54:50 10° 4° (N) 2,006 7.4 -18.9°
Sets 23:57:07 0° 9° (N) 2,922 8.7 -18.8°
